| time (UTC) | temp F | wind direction | speed MPH | gust MPH | rain 1hr in | rain 24hr in | rain mn in | humidity % | barometer mb |
| 20260508131026 | 41 | 0.0 | 0.0 | 0.00 | 0.00 | 0.00 | 17 | 988.2 | |
| 20260508130022 | 44 | 0.0 | 0.0 | 0.00 | 0.00 | 0.00 | 17 | 988.2 | |
| 20260508125020 | 43 | 0.0 | 0.0 | 0.00 | 0.00 | 0.00 | 20 | 988.1 | |
| 20260508124133 | 39 | 0.0 | 0.0 | 0.00 | 0.00 | 0.00 | 30 | 988.2 | |
| 20260508124018 | 39 | 0.0 | 0.0 | 0.00 | 0.00 | 0.00 | 33 | 988.2 | |
| 20260508123130 | 39 | 0.0 | 0.0 | 0.00 | 0.00 | 0.00 | 30 | 988.3 | |
| 20260508122127 | 40 | 0.0 | 0.0 | 0.00 | 0.00 | 0.00 | 25 | 988.1 | |
| 20260508121124 | 46 | 0.0 | 0.0 | 0.00 | 0.00 | 0.00 | 21 | 988.0 | |
| 20260508120236 | 41 | 0.0 | 0.0 | 0.00 | 0.00 | 0.00 | 32 | 988.0 | |
| 20260508120122 | 41 | 0.0 | 0.0 | 0.00 | 0.00 | 0.00 | 30 | 988.0 | |
| 20260508115343 | 39 | 0.0 | 0.0 | 0.00 | 0.00 | 0.00 | 45 | 988.1 | |
| 20260508114341 | 38 | 0.0 | 0.0 | 0.00 | 0.00 | 0.00 | 45 | 988.1 | |
| 20260508113339 | 36 | 0.0 | 0.0 | 0.00 | 0.00 | 0.00 | 47 | 988.1 | |
| 20260508112336 | 41 | 0.0 | 0.0 | 0.00 | 0.00 | 0.00 | 13 | 988.0 | |
| 20260508111332 | 45 | 0.0 | 0.0 | 0.00 | 0.00 | 0.00 | 10 | 987.6 | |
| 20260508110330 | 43 | 0.0 | 0.0 | 0.00 | 0.00 | 0.00 | 12 | 987.6 | |
| 20260508105327 | 42 | 0.0 | 0.0 | 0.00 | 0.00 | 0.00 | 12 | 987.7 | |
| 20260508104324 | 39 | 0.0 | 0.0 | 0.00 | 0.00 | 0.00 | 21 | 987.6 | |
| 20260508103321 | 42 | 0.0 | 0.0 | 0.00 | 0.00 | 0.00 | 12 | 987.5 | |
| 20260508102319 | 44 | 0.0 | 0.0 | 0.00 | 0.00 | 0.00 | 13 | 987.3 | |
| 20260508101316 | 45 | 0.0 | 0.0 | 0.00 | 0.00 | 0.00 | 15 | 987.2 | |
| 20260508100313 | 41 | 0.0 | 0.0 | 0.00 | 0.00 | 0.00 | 23 | 987.2 | |
| 20260508095310 | 37 | 0.0 | 0.0 | 0.00 | 0.00 | 0.00 | 33 | 987.2 | |
| 20260508094424 | 38 | 0.0 | 0.0 | 0.00 | 0.00 | 0.00 | 30 | 987.2 | |
| 20260508094309 | 38 | 0.0 | 0.0 | 0.00 | 0.00 | 0.00 | 29 | 987.2 | |
| 20260508065548 | 44 | 0.0 | 0.0 | 0.00 | 0.00 | 0.00 | 10 | 985.7 | |
| 20260508064545 | 43 | 0.0 | 0.0 | 0.00 | 0.00 | 0.00 | 16 | 985.7 | |
| 20260508063541 | 41 | 0.0 | 0.0 | 0.00 | 0.00 | 0.00 | 19 | 985.6 | |
| 20260508062537 | 42 | 0.0 | 0.0 | 0.00 | 0.00 | 0.00 | 21 | 985.5 | |
| 20260508061535 | 42 | 0.0 | 0.0 | 0.00 | 0.00 | 0.00 | 20 | 985.4 | |
| 20260508060532 | 42 | 0.0 | 0.0 | 0.00 | 0.00 | 0.00 | 27 | 985.3 | |
| 20260508055528 | 41 | 0.0 | 0.0 | 0.00 | 0.00 | 0.00 | 33 | 985.3 | |
| 20260508054526 | 41 | 0.0 | 0.0 | 0.00 | 0.00 | 0.00 | 37 | 985.2 | |
| 20260508053522 | 40 | 0.0 | 0.0 | 0.00 | 0.00 | 0.00 | 42 | 985.1 | |
| 20260508052519 | 39 | 0.0 | 0.0 | 0.00 | 0.00 | 0.00 | 52 | 985.0 | |
| 20260508051519 | 40 | 0.0 | 0.0 | 0.00 | 0.00 | 0.00 | 51 | 984.8 | |
| 20260508050513 | 38 | 0.0 | 0.0 | 0.00 | 0.00 | 0.00 | 59 | 984.8 | |
| 20260508045626 | 35 | 0.0 | 0.0 | 0.00 | 0.00 | 0.00 | 69 | 984.7 | |
| 20260508045511 | 35 | 0.0 | 0.0 | 0.00 | 0.00 | 0.00 | 70 | 984.7 | |
| 20260507210328 | 28 | 0.0 | 0.0 | 0.00 | 0.00 | 0.00 | 99 | 981.9 | |
| 20260507205326 | 28 | 0.0 | 0.0 | 0.00 | 0.00 | 0.00 | 99 | 981.8 | |
| 20260507204323 | 28 | 0.0 | 0.0 | 0.00 | 0.00 | 0.00 | 99 | 981.8 | |
| 20260507203321 | 28 | 0.0 | 0.0 | 0.00 | 0.00 | 0.00 | 99 | 981.7 | |
| 20260507202319 | 28 | 0.0 | 0.0 | 0.00 | 0.00 | 0.00 | 99 | 981.6 | |
| 20260507201316 | 29 | 0.0 | 0.0 | 0.00 | 0.00 | 0.00 | 99 | 981.5 | |
| 20260507200313 | 30 | 0.0 | 0.0 | 0.00 | 0.00 | 0.00 | 96 | 981.5 | |
| 20260507195308 | 30 | 0.0 | 0.0 | 0.00 | 0.00 | 0.00 | 96 | 981.5 | |
| 20260507194304 | 31 | 0.0 | 0.0 | 0.00 | 0.00 | 0.00 | 94 | 981.3 | |
| 20260507193301 | 30 | 0.0 | 0.0 | 0.00 | 0.00 | 0.00 | 96 | 981.4 | |
| 20260507192259 | 31 | 0.0 | 0.0 | 0.00 | 0.00 | 0.00 | 93 | 981.2 | |
| 20260507191256 | 31 | 0.0 | 0.0 | 0.00 | 0.00 | 0.00 | 90 | 981.1 | |
| 20260507190253 | 32 | 0.0 | 0.0 | 0.00 | 0.00 | 0.00 | 80 | 981.0 | |
| 20260507184247 | 33 | 0.0 | 0.0 | 0.00 | 0.00 | 0.00 | 71 | 981.0 | |
| 20260507183244 | 34 | 0.0 | 0.0 | 0.00 | 0.00 | 0.00 | 65 | 981.0 | |
| 20260507182241 | 34 | 0.0 | 0.0 | 0.00 | 0.00 | 0.00 | 65 | 980.9 | |
| 20260507181238 | 35 | 0.0 | 0.0 | 0.00 | 0.00 | 0.00 | 63 | 980.9 | |
| 20260507180235 | 35 | 0.0 | 0.0 | 0.00 | 0.00 | 0.00 | 61 | 980.8 | |
| 20260507175232 | 36 | 0.0 | 0.0 | 0.00 | 0.00 | 0.00 | 57 | 980.8 | |
| 20260507174229 | 37 | 0.0 | 0.0 | 0.00 | 0.00 | 0.00 | 50 | 980.6 | |
| 20260507173226 | 38 | 0.0 | 0.0 | 0.00 | 0.00 | 0.00 | 49 | 980.7 | |
| 20260507172222 | 38 | 0.0 | 0.0 | 0.00 | 0.00 | 0.00 | 48 | 980.6 | |
| 20260507171218 | 38 | 0.0 | 0.0 | 0.00 | 0.00 | 0.00 | 50 | 980.6 | |
| 20260507170212 | 38 | 0.0 | 0.0 | 0.00 | 0.00 | 0.00 | 50 | 980.6 | |
| 20260507165209 | 38 | 0.0 | 0.0 | 0.00 | 0.00 | 0.00 | 52 | 980.6 | |
| 20260507163203 | 37 | 0.0 | 0.0 | 0.00 | 0.00 | 0.00 | 53 | 980.6 | |
| 20260507162200 | 37 | 0.0 | 0.0 | 0.00 | 0.00 | 0.00 | 52 | 980.5 | |
| 20260507161157 | 37 | 0.0 | 0.0 | 0.00 | 0.00 | 0.00 | 50 | 980.5 | |
| 20260507160155 | 38 | 0.0 | 0.0 | 0.00 | 0.00 | 0.00 | 47 | 980.5 | |
| 20260507154150 | 41 | 0.0 | 0.0 | 0.00 | 0.00 | 0.00 | 23 | 980.2 | |
| 20260507153304 | 41 | 0.0 | 0.0 | 0.00 | 0.00 | 0.00 | 22 | 980.2 |